Weather History for Midland Airpark, TX

Change the Weather History Date:

Sunday, November 25, 2012

  Actual Average (KMAF) Record (KMAF)
Temperature  
Mean Temperature 62 °F 49 °F  
Max Temperature 78 °F 63 °F 85 °F (1965)
Min Temperature 46 °F 35 °F 18 °F (1938)
Degree Days  
Heating Degree Days 3 16  
Month to date heating degree days 285  
Since 1 July heating degree days 394  
Growing Degree Days 12 (Base 50)    
Moisture  
Dew Point 34 °F    
Average Humidity 39    
Maximum Humidity 63    
Minimum Humidity 16    
Precipitation  
Precipitation 0.00 in 0.02 in 0.63 in (1935)
Month to date precipitation 0.58  
Year to date precipitation 13.89  
Snow  
Snow 0.00 in - - ()
Month to date snowfall  
Since 1 July snowfall  
Since 1 September snowfall  
Snow Depth -    
Sea Level Pressure  
Sea Level Pressure 29.95 in    
Wind  
Wind Speed 9 mph (SW)    
Max Wind Speed 15 mph    
Max Gust Speed 23 mph    
Visibility 10 miles    
Events      
T = Trace of Precipitation, MM = Missing Value Source: NWS Daily Summary

Daily Weather History Graph

Daily Weather History Graph

Search for Another Location

Airport:

Trip Planner

Search our weather history database for the weather conditions in past years. The results will help you decide how hot, cold, wet, or windy it might be!

Date:

Astronomy

Nov. 25, 2012 Rise Set
Actual Time 7:26 AM CST 5:44 PM CST
Civil Twilight 7:00 AM CST 6:10 PM CST
Nautical Twilight 6:30 AM CST 6:40 PM CST
Astronomical Twilight 6:00 AM CST 7:10 PM CST
Moon 3:57 PM CST (11/25) 4:49 AM CST (11/25)
Length of Visible Light 11h 10m
Length of Day
10h 18m
Waxing Gibbous, 93% of the Moon is Illuminated
Nov 25
Waxing Gibbous
Nov 28
Full
Dec 6
Last Quarter
Dec 13
New
Dec 19
First Quarter

Hourly Weather History & Observations

Time (CST) Temp. Windchill Dew Point Humidity Pressure Visibility Wind Dir Wind Speed Gust Speed Precip Events Conditions
12:15 AM 53.1 °F - 32.2 °F 45% 30.05 in 10.0 mi SSW 10.4 mph - N/A   Clear
12:35 AM 52.7 °F - 32.4 °F 46% 30.04 in 10.0 mi SSW 10.4 mph - N/A   Clear
12:55 AM 51.8 °F - 32.7 °F 48% 30.03 in 10.0 mi SSW 10.4 mph - N/A   Clear
1:15 AM 51.3 °F - 33.1 °F 50% 30.03 in 10.0 mi South 10.4 mph - N/A   Clear
1:35 AM 51.1 °F - 33.6 °F 51% 30.03 in 10.0 mi South 11.5 mph - N/A   Clear
1:55 AM 50.9 °F - 33.8 °F 52% 30.02 in 10.0 mi SSW 9.2 mph - N/A   Clear
2:15 AM 50.4 °F - 33.8 °F 53% 30.02 in 10.0 mi SSW 8.1 mph - N/A   Clear
2:35 AM 50.0 °F - 34.0 °F 54% 30.01 in 10.0 mi South 6.9 mph - N/A   Clear
2:55 AM 49.6 °F - 34.0 °F 55% 30.00 in 10.0 mi SSW 9.2 mph - N/A   Clear
3:15 AM 49.1 °F - 34.0 °F 56% 30.00 in 10.0 mi SSW 9.2 mph - N/A   Clear
3:35 AM 48.7 °F - 33.8 °F 56% 30.00 in 10.0 mi SSW 8.1 mph - N/A   Clear
3:55 AM 48.4 °F - 33.8 °F 57% 30.00 in 10.0 mi SSW 8.1 mph - N/A   Clear
4:15 AM 48.4 °F - 33.8 °F 57% 29.99 in 10.0 mi SSW 9.2 mph - N/A   Clear
4:35 AM 48.0 °F - 33.6 °F 57% 29.99 in 10.0 mi SSW 6.9 mph - N/A   Clear
4:55 AM 47.7 °F - 33.8 °F 59% 29.99 in 10.0 mi SSW 8.1 mph - N/A   Clear
5:15 AM 47.5 °F - 33.8 °F 59% 29.99 in 10.0 mi SW 6.9 mph - N/A   Clear
5:35 AM 47.3 °F - 34.0 °F 60% 29.98 in 10.0 mi SW 5.8 mph - N/A   Clear
5:55 AM 46.4 °F 44.3 °F 34.0 °F 62% 29.98 in 10.0 mi SW 4.6 mph - N/A   Clear
6:15 AM 46.2 °F 44.1 °F 34.2 °F 63% 29.98 in 10.0 mi SSW 4.6 mph - N/A   Clear
6:35 AM 46.6 °F - 34.5 °F 63% 29.98 in 10.0 mi SSW 5.8 mph - N/A   Clear
6:55 AM 47.3 °F - 35.1 °F 62% 29.99 in 10.0 mi SW 5.8 mph - N/A   Clear
7:15 AM 47.8 °F - 35.6 °F 63% 29.99 in 10.0 mi SSW 6.9 mph - N/A   Clear
7:35 AM 48.2 °F - 35.6 °F 62% 30.00 in 10.0 mi SSW 5.8 mph - N/A   Clear
7:55 AM 48.4 °F - 35.8 °F 62% 29.99 in 10.0 mi SSW 6.9 mph - N/A   Clear
8:15 AM 49.6 °F - 36.5 °F 61% 29.99 in 10.0 mi SW 6.9 mph - N/A   Clear
8:35 AM 51.4 °F - 37.2 °F 58% 30.00 in 10.0 mi SSW 9.2 mph - N/A   Clear
8:55 AM 53.4 °F - 38.1 °F 56% 30.00 in 10.0 mi SW 9.2 mph - N/A   Clear
9:15 AM 55.4 °F - 39.0 °F 54% 30.00 in 10.0 mi SW 8.1 mph - N/A   Clear
9:35 AM 57.4 °F - 39.7 °F 52% 30.00 in 10.0 mi WSW 8.1 mph - N/A   Clear
9:55 AM 59.4 °F - 40.3 °F 49% 30.00 in 10.0 mi SW 9.2 mph - N/A   Clear
10:15 AM 62.4 °F - 41.0 °F 45% 30.00 in 10.0 mi WSW 11.5 mph 16.1 mph N/A   Clear
10:35 AM 64.4 °F - 41.2 °F 43% 30.00 in 10.0 mi WSW 13.8 mph 17.3 mph N/A   Clear
10:55 AM 66.2 °F - 40.8 °F 40% 29.99 in 10.0 mi WSW 13.8 mph - N/A   Clear
11:15 AM 68.0 °F - 40.5 °F 37% 29.99 in 10.0 mi WSW 12.7 mph - N/A   Clear
11:35 AM 69.3 °F - 40.1 °F 35% 29.97 in 10.0 mi WSW 15.0 mph 18.4 mph N/A   Clear
11:55 AM 70.3 °F - 39.9 °F 33% 29.96 in 10.0 mi WSW 12.7 mph - N/A   Clear
12:15 PM 71.4 °F - 39.7 °F 32% 29.95 in 10.0 mi WSW 12.7 mph 18.4 mph N/A   Clear
12:35 PM 72.5 °F - 39.6 °F 30% 29.94 in 10.0 mi SW 12.7 mph 17.3 mph N/A   Clear
12:55 PM 73.2 °F - 38.7 °F 29% 29.93 in 10.0 mi WSW 9.2 mph - N/A   Clear
1:15 PM 74.3 °F - 37.6 °F 26% 29.92 in 10.0 mi WSW 12.7 mph 23.0 mph N/A   Clear
1:35 PM 75.4 °F - 36.3 °F 24% 29.91 in 10.0 mi West 11.5 mph - N/A   Clear
1:55 PM 76.1 °F - 34.7 °F 22% 29.90 in 10.0 mi West 11.5 mph 19.6 mph N/A   Clear
2:15 PM 76.5 °F - 34.0 °F 21% 29.89 in 10.0 mi WSW 12.7 mph - N/A   Clear
2:35 PM 76.6 °F - 33.8 °F 21% 29.89 in 10.0 mi WSW 13.8 mph 18.4 mph N/A   Clear
2:55 PM 77.0 °F - 33.4 °F 20% 29.88 in 10.0 mi West 12.7 mph - N/A   Clear
3:15 PM 77.4 °F - 33.4 °F 20% 29.88 in 10.0 mi WSW 10.4 mph 18.4 mph N/A   Clear
3:35 PM 77.9 °F - 33.1 °F 20% 29.88 in 10.0 mi WSW 10.4 mph - N/A   Clear
3:55 PM 77.9 °F - 32.0 °F 19% 29.87 in 10.0 mi WSW 10.4 mph - N/A   Clear
4:15 PM 78.1 °F - 31.3 °F 18% 29.87 in 10.0 mi WSW 10.4 mph - N/A   Clear
4:35 PM 77.9 °F - 30.4 °F 18% 29.87 in 10.0 mi WSW 13.8 mph - N/A   Clear
4:55 PM 77.7 °F - 28.6 °F 16% 29.87 in 10.0 mi West 9.2 mph - N/A   Clear
5:15 PM 76.8 °F - 28.8 °F 17% 29.87 in 10.0 mi WSW 5.8 mph - N/A   Clear
5:35 PM 75.0 °F - 29.8 °F 19% 29.87 in 10.0 mi WSW 4.6 mph - N/A   Clear
5:55 PM 73.2 °F - 29.5 °F 20% 29.87 in 10.0 mi SW 4.6 mph - N/A   Clear
6:15 PM 72.1 °F - 29.7 °F 21% 29.87 in 10.0 mi SW 4.6 mph - N/A   Clear
6:35 PM 70.7 °F - 29.7 °F 22% 29.87 in 10.0 mi SSW 6.9 mph - N/A   Clear
6:55 PM 67.5 °F - 30.2 °F 25% 29.88 in 10.0 mi South 5.8 mph - N/A   Clear
7:15 PM 65.8 °F - 30.9 °F 27% 29.88 in 10.0 mi South 5.8 mph - N/A   Clear
7:35 PM 65.1 °F - 31.3 °F 28% 29.88 in 10.0 mi South 5.8 mph - N/A   Clear
7:55 PM 64.6 °F - 31.8 °F 29% 29.89 in 10.0 mi SSW 5.8 mph - N/A   Clear
8:15 PM 64.8 °F - 31.5 °F 29% 29.89 in 10.0 mi SW 5.8 mph - N/A   Clear
8:35 PM 65.7 °F - 30.9 °F 27% 29.89 in 10.0 mi WSW 9.2 mph - N/A   Clear
8:55 PM 65.7 °F - 30.7 °F 27% 29.90 in 10.0 mi WSW 9.2 mph - N/A   Clear
9:15 PM 63.3 °F - 30.7 °F 29% 29.90 in 10.0 mi West 9.2 mph - N/A   Clear
9:35 PM 61.7 °F - 30.9 °F 31% 29.91 in 10.0 mi West 8.1 mph - N/A   Clear
9:55 PM 61.7 °F - 31.1 °F 32% 29.91 in 10.0 mi West 6.9 mph - N/A   Clear
10:15 PM 61.0 °F - 31.5 °F 33% 29.91 in 10.0 mi WSW 6.9 mph - N/A   Clear
10:35 PM 60.8 °F - 31.6 °F 33% 29.91 in 10.0 mi WSW 6.9 mph - N/A   Clear
10:55 PM 60.8 °F - 31.8 °F 34% 29.91 in 10.0 mi WSW 5.8 mph - N/A   Clear
11:15 PM 60.1 °F - 32.0 °F 35% 29.91 in 10.0 mi WSW 5.8 mph - N/A   Clear
11:35 PM 59.7 °F - 32.0 °F 35% 29.91 in 10.0 mi SSW 8.1 mph - N/A   Clear
11:55 PM 58.5 °F - 32.0 °F 37% 29.92 in 10.0 mi SSW 6.9 mph - N/A   Clear